Weather History for KAZO - November, 2011

Change the Weather History Date:

Sunday, November 27, 2011

  Actual Average Record
Temperature  
Mean Temperature 45 °F 36 °F  
Max Temperature 55 °F 42 °F 65 °F (1990)
Min Temperature 35 °F 29 °F 10 °F (1977)
Degree Days  
Heating Degree Days 20 29  
Month to date heating degree days 644  
Since 1 July heating degree days 1236  
Cooling Degree Days 0 0  
Month to date cooling degree days 0  
Year to date cooling degree days 675  
Moisture  
Dew Point 42 °F    
Average Humidity 89    
Maximum Humidity 94    
Minimum Humidity 81    
Precipitation  
Precipitation 0.34 in 0.10 in 1.71 in (1990)
Month to date precipitation 2.38 2.74  
Year to date precipitation 33.48  
Sea Level Pressure  
Sea Level Pressure 29.88 in    
Wind  
Wind Speed 11 mph (NW)    
Max Wind Speed 17 mph    
Max Gust Speed 23 mph    
Visibility 8 miles    
Events Rain    
T = Trace of Precipitation, MM = Missing Value Source: NWS Daily Summary

Daily Weather History Graph

Daily Weather History Graph

Search for Another Location

Airport or City:

Trip Planner

Search our weather history database for the weather conditions in past years. The results will help you decide how hot, cold, wet, or windy it might be!

Date:

Astronomy

Nov. 27, 2011 Rise Set
Actual Time 7:46 AM EST 5:12 PM EST
Civil Twilight 7:15 AM EST 5:43 PM EST
Nautical Twilight 6:41 AM EST 6:18 PM EST
Astronomical Twilight 6:07 AM EST 6:51 PM EST
Moon 10:11 AM EST (11/27) 7:50 PM EST (11/27)
Length of Visible Light 10h 27m
Length of Day
9h 25m
Waxing Crescent, 8% of the Moon is Illuminated
Nov 27
Waxing Crescent
Dec 2
First Quarter
Dec 10
Full
Dec 17
Last Quarter
Dec 24
New

Hourly Weather History & Observations

Time (EST) Temp. Windchill Dew Point Humidity Pressure Visibility Wind Dir Wind Speed Gust Speed Precip Events Conditions
12:53 AM 55.0 °F - 51.1 °F 86% 29.76 in 10.0 mi South 16.1 mph - 0.01 in   Overcast
1:00 AM 55.4 °F - 51.8 °F 88% 29.75 in 10.0 mi South 12.7 mph - N/A   Overcast
1:43 AM 55.4 °F - 51.8 °F 88% 29.74 in 10.0 mi South 13.8 mph - N/A   Overcast
1:53 AM 55.0 °F - 51.1 °F 86% 29.74 in 9.0 mi South 15.0 mph - 0.00 in Rain Light Rain
2:53 AM 55.0 °F - 52.0 °F 89% 29.73 in 5.0 mi South 12.7 mph - 0.03 in Rain Light Rain
3:12 AM 55.4 °F - 51.8 °F 88% 29.72 in 7.0 mi South 11.5 mph - 0.01 in Rain Light Rain
3:53 AM 55.0 °F - 52.0 °F 89% 29.71 in 5.0 mi South 11.5 mph - 0.03 in Rain Light Rain
4:53 AM 55.0 °F - 53.1 °F 93% 29.71 in 7.0 mi WSW 9.2 mph - 0.03 in Rain Light Rain
5:13 AM 53.6 °F - 51.8 °F 94% 29.73 in 10.0 mi WSW 8.1 mph - 0.00 in   Overcast
5:18 AM 53.6 °F - 51.8 °F 94% 29.73 in 10.0 mi WSW 9.2 mph - 0.00 in Rain Light Rain
5:53 AM 52.0 °F - 48.9 °F 89% 29.74 in 10.0 mi WSW 8.1 mph - 0.01 in Rain Light Rain
6:53 AM 50.0 °F - 46.9 °F 89% 29.75 in 10.0 mi West 9.2 mph - 0.01 in Rain Light Rain
7:53 AM 48.9 °F - 46.9 °F 93% 29.78 in 10.0 mi WSW 9.2 mph - 0.00 in Rain Light Rain
8:53 AM 48.0 °F - 46.0 °F 93% 29.79 in 10.0 mi WSW 8.1 mph - 0.01 in Rain Light Rain
9:07 AM 48.2 °F - 46.4 °F 93% 29.80 in 8.0 mi WSW 6.9 mph - 0.00 in Rain Light Rain
9:32 AM 48.2 °F - 46.4 °F 93% 29.80 in 2.0 mi WSW 6.9 mph - 0.01 in Rain Light Rain
9:53 AM 48.2 °F - 46.4 °F 93% 29.81 in 2.0 mi West 4.6 mph - N/A Rain Light Rain
10:15 AM 48.2 °F - 46.4 °F 93% 29.81 in 3.0 mi West 4.6 mph - 0.00 in Rain Light Rain
10:30 AM 48.2 °F - 46.4 °F 93% 29.82 in 4.0 mi West 4.6 mph - 0.01 in Rain Light Rain
10:53 AM 48.9 °F - 46.9 °F 93% 29.83 in 3.0 mi Calm Calm - 0.02 in Rain Light Rain
11:53 AM 46.0 °F 39.0 °F 43.0 °F 89% 29.83 in 7.0 mi North 17.3 mph - 0.02 in Rain Light Rain
12:53 PM 45.0 °F 38.5 °F 41.0 °F 86% 29.85 in 9.0 mi NNW 13.8 mph - 0.02 in Rain Light Rain
1:00 PM 44.6 °F 38.1 °F 41.0 °F 87% 29.84 in 8.0 mi North 13.8 mph - 0.00 in Rain Light Rain
1:11 PM 44.6 °F 37.4 °F 41.0 °F 87% 29.84 in 7.0 mi NNW 16.1 mph - 0.01 in Rain Light Rain
1:53 PM 43.0 °F 36.4 °F 39.9 °F 89% 29.86 in 7.0 mi NNW 12.7 mph - 0.03 in Rain Light Rain
2:53 PM 41.0 °F 32.8 °F 37.9 °F 89% 29.89 in 9.0 mi NNW 16.1 mph - 0.04 in Rain Light Rain
3:53 PM 39.9 °F 32.9 °F 37.0 °F 89% 29.93 in 8.0 mi NNW 11.5 mph - 0.03 in Rain Light Rain
4:53 PM 37.9 °F 28.9 °F 34.0 °F 86% 29.96 in 8.0 mi NNW 16.1 mph - 0.01 in Rain Light Rain
5:09 PM 37.4 °F 27.8 °F 33.8 °F 87% 29.96 in 10.0 mi North 17.3 mph 23.0 mph 0.01 in Rain Light Rain
5:53 PM 37.0 °F 29.3 °F 34.0 °F 89% 29.99 in 10.0 mi NNW 11.5 mph - 0.02 in Rain Light Rain
6:53 PM 36.0 °F 28.0 °F 33.1 °F 89% 30.02 in 10.0 mi North 11.5 mph - 0.01 in Rain Light Rain
7:06 PM 35.6 °F 26.6 °F 33.8 °F 93% 30.01 in 10.0 mi North 13.8 mph - 0.00 in   Overcast
7:53 PM 37.0 °F 29.8 °F 33.1 °F 86% 30.04 in 10.0 mi North 10.4 mph - 0.00 in   Overcast
8:26 PM 37.4 °F 30.8 °F 33.8 °F 87% 30.03 in 10.0 mi North 9.2 mph - N/A   Overcast
8:38 PM 37.4 °F 29.8 °F 33.8 °F 87% 30.04 in 10.0 mi North 11.5 mph - N/A   Overcast
8:53 PM 37.0 °F 29.8 °F 33.1 °F 86% 30.06 in 10.0 mi NNW 10.4 mph - N/A   Overcast
9:36 PM 37.4 °F 30.8 °F 33.8 °F 87% 30.06 in 10.0 mi North 9.2 mph - N/A   Overcast
9:53 PM 36.0 °F 29.0 °F 33.1 °F 89% 30.07 in 10.0 mi North 9.2 mph - N/A   Overcast
10:33 PM 35.6 °F 28.6 °F 32.0 °F 87% 30.05 in 10.0 mi North 9.2 mph - N/A   Mostly Cloudy
10:41 PM 35.6 °F 28.6 °F 32.0 °F 87% 30.06 in 10.0 mi North 9.2 mph - N/A   Scattered Clouds
10:53 PM 36.0 °F 28.5 °F 32.0 °F 86% 30.08 in 10.0 mi North 10.4 mph - N/A   Scattered Clouds
11:31 PM 35.6 °F 28.6 °F 30.2 °F 81% 30.08 in 10.0 mi North 9.2 mph - N/A   Mostly Cloudy
11:53 PM 35.1 °F 27.9 °F 30.9 °F 85% 30.12 in 10.0 mi NNW 9.2 mph - N/A   Overcast